Wind_Speed
25 26 26 26 26 25 26 26 27 26 26 24 25 25 25 26 26 27 28 28 28 28 28 28 28 28 28 29 30 31 31 32 32 33 35 36 37 38 39 39 40 40 41 41
25 26 26 26 25 24 25 26 26 25 24 23 24 25 25 25 26 26 26 26 26 26 27 27 28 27 28 28 29 29 30 31 31 32 33 33 35 36 37 38 38 39 39 39
26 26 26 25 23 23 23 23 24 24 24 23 24 24 24 25 26 26 26 25 25 25 26 27 28 28 28 28 28 28 29 30 30 31 31 31 32 33 33 34 35 36 37 37
26 26 25 23 21 21 21 21 22 23 23 23 23 23 24 25 26 26 25 24 25 25 25 26 27 27 27 28 28 28 29 29 30 30 30 30 30 30 31 31 32 32 33 35
24 24 24 21 19 19 20 19 19 21 21 22 22 23 24 25 25 25 24 25 25 25 26 26 26 27 27 27 27 27 27 27 27 27 27 28 29 29 29 29 30 30 31 32
24 24 23 20 19 19 20 19 19 20 21 22 22 23 23 24 24 25 25 25 25 26 26 25 25 25 25 25 25 25 25 25 25 25 25 26 27 27 28 28 28 29 30 30
23 23 22 21 20 20 20 20 20 21 21 22 22 23 22 23 23 24 24 24 24 24 24 24 24 24 24 24 24 24 24 23 24 24 24 25 25 26 27 27 27 28 29 29
23 23 21 20 20 20 21 21 21 21 22 22 22 23 23 23 23 23 23 23 23 22 22 22 22 22 23 23 22 22 22 23 23 23 23 23 24 25 25 25 26 26 27 27
22 22 21 21 20 20 21 20 20 21 22 23 23 23 23 23 22 22 22 22 21 21 21 21 21 21 21 21 21 21 22 22 22 22 23 23 23 24 24 24 24 25 25 25
22 21 21 20 20 20 20 21 21 22 22 23 22 22 22 22 22 21 21 21 21 20 20 20 20 20 21 21 22 22 22 21 21 22 22 22 22 22 23 22 22 22 22 22
22 20 19 19 20 21 21 21 21 22 22 22 21 21 21 21 21 22 21 21 21 20 20 20 20 20 21 21 21 21 21 21 21 21 21 21 21 21 20 20 20 20 20 20
20 20 19 19 19 20 21 20 21 21 20 19 19 19 19 20 20 21 21 21 20 19 19 19 20 20 21 21 21 21 21 20 20 20 20 20 20 20 20 19 19 19 19 19
20 19 19 19 19 19 19 19 19 19 18 17 17 18 19 19 19 20 20 19 19 19 19 18 19 19 19 20 19 19 19 19 18 18 19 19 19 19 19 18 18 18 18 19
17 17 17 18 18 18 18 18 17 17 17 17 17 17 18 18 18 18 18 18 18 18 18 18 18 18 18 18 18 18 18 18 18 18 18 19 19 19 18 18 18 18 18 19
15 15 15 15 16 16 16 16 16 16 15 15 16 16 16 16 16 16 16 17 17 17 17 16 16 17 17 17 17 17 17 17 17 17 17 17 18 18 18 18 18 19 19 19
14 14 14 14 14 14 15 15 15 15 15 15 16 16 16 16 16 15 15 15 16 16 16 16 16 16 16 16 16 16 16 15 16 16 16 16 17 17 17 17 18 18 18 18
14 14 14 14 13 13 13 13 13 14 14 15 16 16 16 15 15 15 14 14 15 15 15 15 15 15 15 15 14 14 14 14 15 15 15 15 16 16 17 16 17 17 17 17
14 14 13 13 12 12 11 12 13 14 16 16 16 15 14 13 13 13 13 13 13 14 14 15 15 14 14 13 13 14 14 14 15 15 15 15 15 15 15 15 16 16 16 16
15 14 14 13 13 12 11 12 13 14 15 15 14 13 13 13 13 13 13 13 13 13 14 14 14 14 14 13 14 14 14 15 15 15 15 15 16 16 15 15 15 15 15 16
14 14 14 13 13 13 13 13 14 15 15 14 14 13 14 14 14 14 13 13 13 13 13 13 13 13 13 13 13 13 14 14 14 14 15 15 15 15 15 15 14 15 15 15
15 14 13 13 13 13 14 14 14 14 14 14 14 14 14 14 14 14 13 13 13 13 13 13 13 13 13 13 14 14 13 13 13 14 14 14 15 15 15 15 15 15 15 15
14 13 13 14 14 14 14 14 14 14 14 14 14 14 14 14 14 14 14 14 13 13 13 13 13 13 13 14 14 14 14 14 14 14 14 14 14 15 15 14 14 14 14 14
14 14 14 14 14 14 14 14 14 14 14 14 14 13 13 13 13 13 13 13 12 12 12 12 12 12 13 13 13 14 14 14 14 14 14 14 14 14 14 14 15 14 14 14
14 14 14 14 13 13 13 13 13 13 14 14 13 12 12 12 12 12 12 12 11 11 12 12 13 13 13 13 13 13 14 14 15 15 15 15 15 15 15 15 15 15 14 14
15 15 14 13 13 13 13 13 13 13 13 12 12 12 11 11 11 11 11 11 11 11 12 12 13 13 13 13 14 14 14 15 15 15 15 15 15 14 14 14 14 14 14 13
15 15 14 13 13 13 13 13 13 12 12 11 11 11 11 11 10 10 10 10 10 11 12 12 13 13 13 13 14 14 14 14 13 14 14 14 14 13 13 13 13 13 13 12
15 14 14 13 13 12 12 12 12 11 11 10 10 10 10 10 10 10 10 10 11 11 12 12 12 12 12 13 13 13 13 12 12 13 13 13 13 12 12 12 12 12 11 11
Wind_Direction
291 290 289 288 286 282 278 275 274 277 276 274 274 276 277 276 275 274 274 273 273 272 271 271 272 272 271 270 270 269 269 269 268 267 266 265 265 265 265 265 265 265 266 265
290 290 288 287 286 284 280 276 274 274 274 274 274 277 278 276 274 274 274 273 273 272 271 271 272 272 272 272 272 271 270 270 270 269 268 267 267 267 267 266 266 267 267 267
291 291 290 287 288 284 280 275 273 271 272 273 276 278 276 276 275 274 273 273 274 274 273 273 273 272 272 272 272 272 271 271 270 269 269 268 269 269 268 268 269 268 268 268
292 291 290 293 289 283 280 276 273 270 272 274 276 278 276 277 276 273 273 273 273 274 274 273 273 273 274 274 274 274 274 273 270 269 269 269 269 269 269 270 271 271 270 270
292 291 292 292 292 288 283 280 274 272 275 276 277 277 277 277 276 273 272 272 274 274 274 273 274 275 276 276 276 274 274 273 271 270 270 270 270 270 271 272 273 273 272 272
290 291 293 294 293 287 284 282 278 277 279 279 280 280 278 276 275 276 275 274 275 276 275 274 275 275 275 275 274 274 273 272 272 272 272 271 271 272 273 274 274 275 275 275
288 288 289 292 292 288 286 285 283 281 282 283 281 280 279 277 277 278 277 275 275 276 276 275 275 275 275 275 275 274 272 272 272 273 273 273 273 275 275 275 275 276 278 278
288 286 288 289 290 287 287 286 286 285 284 285 283 281 279 278 278 279 278 276 275 276 277 277 276 276 275 274 274 273 272 272 272 272 272 273 274 276 277 276 277 277 279 280
287 286 286 286 286 287 287 289 289 287 287 286 283 281 280 279 280 280 279 278 277 277 277 277 277 277 276 275 274 273 273 272 272 272 273 274 276 277 278 277 278 279 279 279
284 285 284 284 284 286 286 287 289 290 290 289 285 280 279 278 280 280 280 278 277 277 277 276 276 277 277 276 275 274 274 273 273 272 273 275 276 277 278 277 278 279 280 280
282 282 281 282 283 284 284 286 288 290 289 288 286 282 281 280 280 280 279 276 275 275 276 276 277 279 279 277 275 274 273 273 273 273 273 275 276 277 277 278 280 281 281 282
286 281 280 282 283 285 286 287 288 288 288 288 287 285 284 283 282 281 280 277 275 276 276 277 278 278 278 278 275 274 274 273 273 272 272 273 275 275 277 278 279 281 282 282
288 283 281 282 285 288 288 287 288 287 287 288 287 286 285 284 285 283 281 278 277 278 278 277 278 278 279 280 278 276 275 275 274 272 271 272 273 274 275 277 278 280 281 282
290 288 286 285 285 287 288 289 289 288 288 288 289 291 288 286 287 283 280 279 278 279 280 280 280 281 281 281 280 278 276 275 274 273 273 272 272 273 274 276 278 280 281 282
295 291 292 292 291 288 287 289 290 290 290 291 292 295 295 291 288 286 283 281 280 280 281 282 283 284 285 283 282 280 278 276 275 274 273 273 273 274 276 277 277 279 281 282
298 293 293 295 296 293 289 290 291 291 291 292 293 295 295 293 291 290 288 285 283 282 282 283 285 286 286 284 283 282 280 278 275 274 273 275 275 276 278 278 278 280 281 282
300 296 294 295 295 294 293 292 293 293 295 298 297 296 295 292 292 293 292 287 284 282 282 284 286 286 286 284 282 280 280 279 277 276 276 275 276 277 279 278 278 280 281 283
301 299 297 296 295 292 291 291 293 295 297 300 298 297 295 292 293 295 296 293 288 283 283 285 286 287 287 285 282 281 280 280 279 278 278 277 278 279 278 277 277 279 281 284
300 298 297 296 296 292 291 292 295 298 300 300 299 298 297 297 296 297 298 298 295 290 287 286 286 286 285 282 281 281 281 280 278 276 275 276 277 279 280 278 278 279 281 284
302 298 296 297 296 294 292 294 297 299 299 298 297 297 296 296 296 296 296 296 296 296 293 290 288 288 286 283 282 282 282 282 279 277 277 278 278 278 279 279 279 279 282 285
304 300 297 297 297 295 294 296 298 299 298 298 298 298 297 295 294 293 293 294 294 294 294 294 291 288 285 284 283 283 282 282 281 280 280 279 278 278 278 279 279 279 281 283
303 302 298 298 296 295 294 294 297 298 300 301 301 301 298 296 294 292 292 294 293 293 294 295 293 290 288 286 285 283 281 281 282 282 282 281 279 279 279 278 279 280 280 280
303 302 302 300 297 295 294 293 295 297 299 301 302 301 299 297 295 293 294 293 293 294 296 298 298 297 295 292 288 285 282 282 282 283 283 282 280 279 279 279 279 279 278 279
305 303 304 303 298 296 295 295 296 297 299 301 301 301 301 301 299 297 297 297 296 296 297 299 300 300 298 295 291 289 287 285 283 283 283 282 281 280 279 279 279 277 277 277
304 306 305 303 298 294 293 294 296 297 298 299 300 302 302 302 302 301 300 298 298 298 300 301 300 300 299 298 296 293 291 289 287 285 285 285 284 282 282 281 278 277 276 275
303 303 301 300 299 295 292 293 295 295 294 295 296 299 302 304 304 303 303 303 304 304 305 306 304 302 302 301 300 299 298 294 290 289 289 288 285 283 282 283 281 278 277 274
302 300 298 298 298 296 293 292 291 291 293 293 294 297 300 302 302 302 303 303 306 308 310 311 310 308 307 306 305 303 301 299 298 295 292 289 286 284 283 283 282 280 276 271
Height
5593 5591 5588 5586 5584 5583 5581 5579 5578 5578 5577 5578 5577 5577 5576 5576 5576 5575 5575 5575 5574 5574 5574 5574 5574 5573 5573 5573 5572 5572 5572 5572 5571 5571 5571 5571 5572 5572 5573 5573 5573 5574 5574 5575
5586 5584 5580 5578 5577 5575 5573 5572 5571 5570 5570 5571 5570 5569 5568 5568 5568 5567 5567 5567 5566 5566 5566 5565 5565 5565 5564 5564 5563 5563 5562 5562 5562 5561 5561 5561 5561 5561 5562 5562 5562 5562 5563 5563
5578 5576 5573 5571 5571 5568 5566 5565 5564 5563 5564 5563 5563 5562 5561 5561 5560 5560 5559 5559 5558 5558 5558 5557 5557 5556 5556 5555 5554 5554 5553 5553 5552 5552 5551 5551 5551 5551 5551 5551 5551 5551 5551 5551
5571 5569 5566 5568 5564 5561 5559 5559 5558 5557 5556 5556 5556 5555 5554 5553 5552 5552 5552 5552 5551 5550 5550 5549 5548 5548 5547 5546 5545 5545 5544 5543 5543 5542 5542 5542 5542 5542 5542 5542 5541 5541 5541 5540
5564 5561 5559 5560 5558 5555 5553 5553 5552 5551 5550 5549 5548 5547 5547 5546 5545 5545 5544 5544 5543 5542 5542 5541 5540 5539 5538 5537 5536 5535 5535 5534 5534 5533 5533 5533 5533 5532 5532 5532 5531 5531 5530 5530
5558 5555 5553 5555 5552 5549 5549 5547 5547 5545 5544 5543 5542 5541 5541 5539 5538 5537 5537 5536 5535 5534 5533 5533 5532 5531 5530 5529 5528 5527 5527 5526 5525 5525 5525 5524 5524 5524 5523 5523 5522 5521 5521 5520
5551 5548 5548 5548 5546 5544 5544 5543 5540 5539 5537 5536 5535 5534 5533 5532 5531 5530 5529 5528 5527 5526 5526 5525 5524 5523 5522 5521 5521 5520 5519 5518 5518 5517 5517 5516 5516 5515 5515 5514 5513 5512 5511 5510
5545 5543 5545 5542 5540 5539 5537 5535 5534 5532 5531 5530 5529 5527 5526 5525 5524 5523 5522 5521 5520 5519 5518 5517 5517 5516 5515 5514 5513 5512 5512 5511 5510 5510 5510 5509 5508 5507 5506 5505 5505 5504 5503 5502
5540 5540 5537 5535 5533 5532 5531 5529 5528 5527 5525 5524 5522 5520 5519 5518 5517 5516 5515 5514 5513 5512 5511 5511 5510 5509 5508 5507 5506 5505 5505 5504 5503 5503 5502 5501 5501 5500 5499 5498 5497 5496 5495 5494
5532 5532 5530 5529 5527 5526 5525 5523 5522 5520 5519 5517 5515 5514 5513 5512 5511 5510 5508 5507 5506 5506 5505 5504 5503 5502 5501 5500 5499 5498 5497 5497 5496 5495 5495 5494 5493 5492 5492 5491 5490 5489 5488 5487
5526 5525 5524 5523 5521 5520 5518 5517 5516 5514 5512 5510 5509 5507 5506 5505 5504 5503 5502 5501 5500 5499 5499 5498 5496 5495 5494 5493 5492 5491 5490 5489 5489 5488 5487 5487 5486 5486 5485 5484 5483 5482 5481 5480
5520 5519 5518 5517 5516 5514 5513 5511 5510 5508 5507 5505 5503 5502 5500 5499 5498 5497 5496 5495 5494 5493 5492 5491 5490 5489 5488 5487 5485 5484 5483 5483 5482 5481 5481 5480 5480 5479 5478 5478 5477 5476 5475 5474
5514 5513 5512 5511 5510 5508 5507 5505 5504 5502 5501 5499 5498 5496 5495 5493 5492 5491 5490 5489 5488 5487 5486 5485 5484 5483 5482 5480 5479 5478 5477 5476 5475 5475 5474 5474 5473 5473 5473 5472 5471 5470 5469 5468
5508 5507 5506 5505 5504 5503 5501 5500 5498 5497 5495 5494 5493 5491 5489 5488 5487 5485 5484 5483 5482 5481 5480 5479 5478 5477 5476 5474 5473 5472 5471 5470 5469 5469 5468 5468 5468 5467 5467 5466 5466 5465 5464 5463
5504 5502 5501 5500 5499 5497 5496 5494 5493 5492 5490 5489 5488 5486 5484 5483 5481 5480 5479 5478 5477 5476 5475 5474 5473 5471 5470 5469 5467 5466 5465 5464 5464 5463 5463 5462 5462 5461 5461 5460 5460 5459 5458 5457
5500 5498 5496 5495 5494 5492 5491 5490 5489 5487 5486 5485 5483 5481 5479 5478 5476 5475 5473 5472 5472 5471 5470 5469 5467 5466 5465 5463 5462 5461 5460 5459 5458 5458 5457 5457 5456 5456 5455 5455 5454 5453 5452 5451
5495 5493 5492 5491 5489 5488 5487 5486 5484 5483 5482 5480 5478 5476 5475 5473 5472 5470 5468 5467 5466 5465 5464 5463 5462 5461 5459 5458 5457 5456 5455 5454 5453 5453 5452 5452 5451 5450 5450 5449 5449 5448 5447 5446
5490 5489 5488 5486 5485 5484 5483 5482 5480 5479 5477 5475 5473 5471 5470 5469 5467 5466 5464 5463 5461 5460 5459 5458 5457 5456 5454 5453 5452 5451 5450 5449 5448 5448 5447 5446 5446 5445 5445 5444 5443 5443 5442 5441
5486 5485 5484 5482 5481 5479 5478 5477 5476 5475 5473 5471 5469 5467 5466 5465 5463 5462 5460 5459 5457 5456 5455 5453 5452 5451 5449 5448 5447 5446 5445 5444 5443 5443 5442 5442 5441 5440 5440 5439 5438 5438 5437 5437
5482 5481 5479 5478 5477 5475 5474 5473 5472 5470 5468 5466 5465 5463 5462 5461 5459 5458 5456 5454 5453 5452 5450 5449 5447 5446 5445 5443 5442 5441 5440 5439 5438 5438 5437 5437 5436 5436 5435 5434 5434 5433 5433 5432
5478 5477 5475 5474 5472 5471 5470 5468 5467 5465 5464 5462 5461 5459 5458 5456 5455 5453 5452 5451 5449 5447 5446 5444 5443 5441 5440 5439 5438 5436 5435 5435 5434 5433 5432 5432 5431 5431 5430 5430 5429 5429 5428 5427
5474 5472 5471 5469 5468 5466 5465 5464 5463 5461 5460 5458 5457 5455 5453 5452 5450 5449 5447 5446 5445 5443 5442 5440 5438 5437 5435 5434 5433 5432 5431 5430 5429 5428 5428 5427 5426 5426 5425 5425 5424 5424 5423 5423
5469 5468 5466 5465 5463 5462 5461 5459 5458 5457 5456 5454 5453 5451 5449 5448 5446 5445 5444 5442 5441 5439 5438 5436 5435 5433 5431 5430 5429 5428 5427 5426 5425 5424 5423 5422 5422 5421 5420 5420 5420 5419 5418 5418
5465 5463 5461 5460 5458 5457 5456 5455 5454 5453 5451 5450 5448 5447 5446 5444 5443 5441 5440 5438 5437 5436 5434 5433 5431 5429 5428 5426 5425 5424 5422 5421 5420 5419 5418 5417 5417 5416 5415 5415 5414 5414 5414 5413
5460 5459 5457 5455 5454 5453 5452 5451 5450 5449 5447 5446 5445 5443 5442 5441 5439 5438 5436 5435 5434 5432 5431 5429 5428 5426 5424 5422 5421 5419 5418 5417 5415 5414 5413 5412 5411 5410 5410 5409 5409 5409 5408 5408
5456 5454 5453 5451 5450 5449 5448 5447 5446 5445 5444 5442 5441 5440 5439 5437 5436 5434 5433 5432 5431 5429 5427 5426 5424 5422 5420 5418 5417 5415 5414 5412 5411 5409 5408 5407 5406 5405 5405 5404 5404 5404 5403 5403
5451 5449 5448 5447 5445 5444 5443 5443 5442 5441 5440 5439 5438 5437 5435 5434 5433 5431 5430 5429 5427 5426 5424 5422 5420 5418 5416 5415 5413 5411 5409 5408 5406 5405 5403 5402 5401 5401 5400 5399 5399 5399 5399 5399